GFSFLT2_500_rhum_144.txt.gz
RH
41 42 43 44 45 45 45 44 44 42 43 44 45 45 44 43 44 42 41 42 43 45 46 47 50 58 52 42 36 32 37 37
39 41 43 43 44 46 45 44 46 47 47 45 43 40 48 47 46 44 44 47 45 42 39 46 43 46 57 66 67 57 56 63
11 13 18 25 31 35 38 38 36 29 25 22 24 24 21 19 22 30 42 44 23 15 15 15 13 15 17 20 26 36 40 52
19 15 13 13 12 12 11 9 8 7 7 8 9 9 9 8 8 12 16 21 20 24 24 22 27 32 42 35 38 49 54 51
20 18 24 25 25 24 21 19 16 15 14 15 17 20 21 22 22 23 24 26 28 31 36 41 45 56 51 50 50 51 32 24
18 16 16 16 18 26 29 29 33 32 19 15 16 17 16 16 19 23 24 28 32 34 33 34 34 35 41 47 45 40 38 43
43 41 32 25 24 26 27 32 33 31 31 33 33 30 24 24 35 35 34 33 32 29 28 27 29 30 31 32 31 30 30 33
42 42 40 33 30 28 28 32 32 30 31 31 35 36 36 37 31 28 27 24 22 21 20 19 17 18 19 21 23 24 25 24
46 42 38 34 32 31 31 32 31 28 25 24 25 26 26 24 19 17 17 16 16 16 16 16 16 15 15 15 15 14 14 16
49 42 38 35 35 33 30 31 30 26 21 20 20 18 17 16 16 16 16 16 15 14 13 12 10 10 9 8 7 7 7 7
49 43 39 37 35 33 29 24 22 20 20 19 18 17 17 16 16 16 15 13 12 11 10 9 8 7 6 6 5 4 4 4
55 44 38 33 31 30 26 21 20 20 19 18 17 16 16 16 16 14 13 11 10 9 9 8 7 6 6 4 4 4 3 3
65 55 38 28 26 25 23 21 19 18 18 18 18 18 18 17 15 14 13 12 11 9 8 7 6 5 5 5 5 5 5 4
62 46 34 29 27 25 24 22 21 20 20 20 19 19 18 17 16 16 15 14 14 11 11 10 9 8 8 8 10 15 14 7
52 45 41 35 31 29 28 25 24 23 22 21 20 20 19 19 18 19 18 16 15 14 13 13 15 18 20 19 16 12 7 5
47 44 40 36 33 32 31 29 27 26 24 24 24 24 23 23 22 22 18 16 14 14 16 18 19 22 20 15 12 9 7 6
46 42 39 36 37 37 37 36 34 33 31 29 28 28 28 28 26 21 18 18 20 20 23 26 28 24 22 13 9 10 14 18
53 44 43 44 45 44 44 44 43 41 41 39 37 34 32 30 26 23 25 26 26 29 30 24 18 17 13 7 10 19 31 27
56 52 51 51 51 49 49 51 50 52 54 55 52 47 42 38 35 35 33 31 32 26 22 19 14 7 7 10 27 36 31 21
61 62 56 55 54 54 56 58 61 57 53 53 57 55 48 47 43 38 34 30 26 22 16 9 6 7 9 24 44 39 24 23

GFSFLT2_500_rhum_150.txt.gz
RH
20 18 26 35 40 39 39 41 43 44 46 46 47 48 48 44 41 39 42 46 44 45 44 43 39 33 29 23 18 16 20 28
27 20 12 21 34 38 39 40 41 41 38 33 26 23 22 22 17 23 25 29 25 37 43 39 24 17 15 17 19 25 29 36
28 28 26 21 16 15 14 13 12 12 11 11 10 9 8 8 10 10 10 10 11 13 13 21 23 25 23 28 30 30 49 65
35 30 30 27 24 22 20 19 21 23 24 23 20 18 15 13 10 11 13 17 20 21 20 18 22 31 33 40 40 47 50 47
40 39 38 36 33 30 29 25 21 17 18 23 30 30 31 31 16 15 15 16 17 17 15 17 24 28 39 44 42 40 38 42
38 36 39 40 39 39 36 36 41 41 27 23 26 27 30 31 31 28 22 19 17 15 20 30 31 30 31 32 32 30 28 27
36 34 35 37 38 43 46 41 42 42 38 30 28 28 30 30 30 29 30 34 34 31 32 33 29 24 21 20 19 19 17 15
24 27 27 28 36 49 51 53 50 43 37 32 30 30 31 30 26 25 26 28 32 34 31 26 20 16 13 14 14 15 15 14
19 19 19 20 26 43 58 56 48 39 36 34 32 32 32 31 28 25 21 20 22 22 20 16 14 15 15 15 15 14 13 13
17 20 24 26 35 48 53 56 45 39 35 33 31 27 26 27 25 21 19 18 18 17 16 16 16 16 16 15 14 12 12 11
23 47 54 45 48 53 54 57 48 43 34 27 25 25 25 23 20 18 18 18 18 17 17 17 17 18 17 15 13 12 11 10
47 67 59 60 58 59 57 56 58 54 40 31 24 23 22 21 20 20 20 20 18 18 18 18 19 18 16 14 14 14 13 12
54 60 70 78 75 65 57 60 63 54 43 35 27 23 23 22 21 20 20 19 19 18 18 18 18 17 16 16 16 16 15 14
59 71 81 87 75 69 58 54 58 53 47 38 30 28 26 25 24 24 23 22 21 21 20 19 19 19 19 20 20 19 18 16
59 72 89 85 75 72 57 51 54 55 48 42 37 33 31 30 30 29 28 27 26 24 24 24 24 24 24 24 25 26 26 25
81 88 89 85 80 75 58 52 56 55 47 41 35 33 34 35 36 36 37 38 38 37 36 34 33 32 32 34 37 37 39 38
67 68 75 82 79 70 59 54 57 57 50 43 38 39 42 43 43 44 44 45 44 46 46 46 47 49 49 48 46 42 42 30
62 64 70 74 73 65 55 56 68 61 54 50 45 47 49 49 47 46 46 48 50 50 48 46 44 44 46 49 43 29 20 14
61 63 68 72 72 68 67 76 79 76 66 55 52 55 55 51 50 56 57 53 51 51 49 44 43 49 49 43 32 24 16 11
61 60 58 57 62 68 78 78 70 68 60 59 60 66 62 58 61 72 66 58 52 47 48 51 51 44 36 29 24 18 13 9

GFSFLT2_500_rhum_156.txt.gz
RH
15 13 14 20 17 20 25 25 24 21 17 16 15 16 15 13 10 10 13 15 21 31 32 28 35 43 42 33 26 24 16 13
14 13 14 22 19 22 27 28 29 27 22 20 19 16 14 15 14 11 8 8 14 14 16 16 14 17 24 26 20 18 21 26
14 13 13 18 24 24 28 33 36 35 32 27 24 21 20 22 24 24 17 14 8 9 9 9 10 13 17 18 23 30 30 35
17 14 15 16 24 28 28 36 38 39 39 40 40 41 42 38 23 22 29 30 27 14 11 13 20 20 21 29 47 46 48 52
15 16 15 16 20 29 30 35 38 38 40 42 45 46 46 42 41 30 25 28 29 33 23 14 20 24 24 24 30 40 55 60
14 13 14 16 18 19 25 31 32 31 32 37 42 47 50 48 44 40 29 26 27 31 32 32 20 17 18 18 18 27 35 34
13 13 13 14 18 20 19 20 24 22 21 22 35 49 49 51 47 39 33 29 28 29 30 30 30 32 36 35 32 35 35 28
13 14 13 13 15 17 18 19 18 19 20 30 44 48 46 51 44 38 33 30 30 31 30 27 28 26 29 33 35 34 30 22
15 21 18 14 14 15 16 16 17 23 43 49 52 50 47 51 43 36 34 32 30 32 33 30 27 23 22 23 24 23 20 17
29 28 17 14 15 16 18 18 18 36 60 58 59 54 50 54 41 35 32 31 29 27 27 24 22 20 20 21 20 19 18 16
27 25 18 16 16 16 19 22 24 40 48 52 62 56 52 55 46 39 30 26 27 26 24 21 20 20 20 20 20 19 18 16
34 26 19 17 17 19 23 26 35 46 53 50 66 60 56 62 55 44 35 29 25 23 23 22 22 20 21 20 20 20 18 18
60 31 21 20 21 26 30 36 48 54 57 54 67 61 54 54 54 50 47 42 32 27 25 24 24 23 23 23 23 23 22 22
41 29 26 26 32 39 47 52 55 59 61 67 69 61 54 47 47 48 48 45 41 37 33 31 30 30 30 29 28 29 30 30
36 32 31 36 41 46 50 57 67 73 76 76 70 62 56 49 48 50 50 48 43 39 35 33 34 35 36 37 37 35 37 40
44 41 41 57 51 51 59 66 70 73 77 75 65 66 62 54 52 53 56 56 51 47 44 41 40 43 44 42 42 43 43 42
61 58 52 56 55 56 65 67 63 68 76 71 62 63 67 67 60 54 61 70 69 64 58 52 47 47 48 48 49 58 60 58
71 71 61 54 57 61 68 66 53 64 74 68 62 61 66 69 70 65 66 74 77 75 67 59 54 56 65 62 60 66 61 54
68 70 74 69 63 68 64 70 50 63 68 66 62 65 72 71 72 73 71 72 76 75 71 69 65 68 81 86 75 66 55 24
74 72 71 68 61 73 81 76 58 68 75 70 68 74 96 95 82 76 68 70 77 81 82 84 79 82 89 90 76 75 38 9

GFSFLT2_500_rhum_159.txt.gz
RH
18 19 18 15 13 14 18 19 23 26 29 28 27 25 21 18 14 11 9 8 9 15 26 30 33 42 49 46 31 22 17 15
16 18 18 16 14 13 17 21 22 29 32 33 35 35 32 25 22 22 22 16 12 9 14 16 17 16 21 27 27 24 21 20
13 15 17 17 15 14 14 20 26 31 31 36 40 41 42 43 42 41 29 23 26 17 11 10 10 10 11 13 18 20 24 31
12 12 14 16 15 15 14 17 28 33 32 37 39 41 44 47 48 48 43 39 25 29 29 22 11 11 18 21 24 27 39 58
12 11 11 13 15 15 16 16 20 29 33 31 31 33 34 40 44 48 49 45 39 27 27 28 33 23 15 23 30 34 39 36
12 12 11 12 13 14 15 15 17 21 24 27 25 21 22 32 39 42 47 48 42 35 28 27 31 34 34 26 18 20 20 22
12 12 11 11 13 14 14 14 17 20 21 19 19 19 30 47 48 46 44 47 41 35 30 28 29 32 33 32 33 37 36 32
12 12 11 11 14 21 19 14 14 17 20 17 18 28 46 60 61 50 46 47 38 34 32 31 31 32 29 30 31 29 30 36
11 10 10 12 25 30 20 15 15 17 18 18 19 44 48 55 61 56 48 47 38 35 35 33 33 34 34 31 28 26 26 24
12 11 12 24 27 28 23 18 17 18 19 19 24 42 48 50 58 53 56 49 37 32 31 30 29 29 27 25 22 22 22 22
32 18 20 24 29 29 25 19 17 18 21 25 28 46 50 52 64 55 58 56 45 35 27 25 25 25 23 23 23 22 21 21
30 22 25 32 37 42 29 21 18 20 25 30 45 52 52 57 68 59 60 61 52 40 36 32 26 23 23 22 22 21 21 21
41 40 41 41 49 51 36 22 21 26 38 52 54 57 57 68 71 60 54 55 53 50 47 42 34 30 28 27 28 27 26 25
66 61 50 41 37 34 31 26 25 43 58 58 59 69 76 76 69 67 53 50 51 51 48 44 41 37 34 32 32 32 29 31
65 56 52 46 39 35 31 29 33 52 59 60 68 70 74 78 66 64 62 54 52 53 54 50 45 42 39 39 39 41 39 40
66 62 56 50 45 42 41 40 43 50 52 60 70 71 71 68 69 61 63 58 55 53 56 63 61 56 52 49 49 49 47 47
68 90 77 73 65 58 53 52 53 50 56 63 68 67 64 65 65 61 58 63 65 63 58 60 72 81 79 70 60 56 53 55
72 89 92 94 95 90 83 76 70 60 67 75 74 70 69 70 74 68 58 62 68 71 71 69 71 73 76 73 68 66 68 75
77 94 93 94 91 87 91 87 79 74 86 86 83 83 86 84 82 80 75 72 69 69 72 72 66 66 73 80 85 89 87 94
95 98 97 83 67 68 88 96 93 80 90 100 98 97 94 88 85 85 85 92 95 87 81 89 81 69 78 96 96 97 100 98